Time,TemperatureF,DewpointF,PressureIn,WindDirection,WindDirectionDegrees,WindSpeedMPH,WindSpeedGustMPH,Humidity,HourlyPrecipIn,Conditions,Clouds,dailyrainin,SolarRadiationWatts/m^2,SoftwareType,DateUTC
2013-04-19 00:03:00,50.0,50.0,-100.00,ESE,119,7.0,12.0,100,0.00,,,0.00,0.000000,,2013-04-19 04:03:00,
2013-04-19 00:10:00,51.0,51.0,-100.00,SE,125,7.0,11.0,100,0.00,,,0.00,0.000000,,2013-04-19 04:10:00,
2013-04-19 00:33:00,51.0,51.0,-100.00,SE,125,7.0,11.0,100,0.00,,,0.00,0.000000,,2013-04-19 04:33:00,
2013-04-19 00:43:00,51.0,51.0,-100.00,SE,125,7.0,11.0,100,0.00,,,0.00,0.000000,,2013-04-19 04:43:00,
2013-04-19 00:52:00,51.0,51.0,-100.00,SE,125,7.0,11.0,100,0.00,,,0.00,0.000000,,2013-04-19 04:52:00,
2013-04-19 01:03:00,51.0,51.0,-100.00,SE,125,7.0,11.0,100,0.00,,,0.00,0.000000,,2013-04-19 05:03:00,
2013-04-19 01:10:00,54.0,54.0,-100.00,SE,144,7.0,13.0,100,0.00,,,0.00,0.000000,,2013-04-19 05:10:00,
2013-04-19 01:32:00,54.0,54.0,-100.00,SE,144,7.0,13.0,100,0.00,,,0.00,0.000000,,2013-04-19 05:32:00,
2013-04-19 01:42:00,54.0,54.0,-100.00,SE,144,7.0,13.0,100,0.00,,,0.00,0.000000,,2013-04-19 05:42:00,
2013-04-19 01:52:00,54.0,54.0,-100.00,SE,144,7.0,13.0,100,0.00,,,0.00,0.000000,,2013-04-19 05:52:00,
2013-04-19 02:02:00,54.0,54.0,-100.00,SE,144,7.0,13.0,100,0.00,,,0.00,0.000000,,2013-04-19 06:02:00,
2013-04-19 02:10:00,55.0,55.0,-100.00,SSE,155,8.0,15.0,100,0.00,,,0.00,0.000000,,2013-04-19 06:10:00,
2013-04-19 02:32:00,55.0,55.0,-100.00,SSE,155,8.0,15.0,100,0.00,,,0.00,0.000000,,2013-04-19 06:32:00,
2013-04-19 02:42:00,55.0,55.0,-100.00,SSE,155,8.0,15.0,100,0.00,,,0.00,0.000000,,2013-04-19 06:42:00,
2013-04-19 02:53:00,55.0,55.0,-100.00,SSE,155,8.0,15.0,100,0.00,,,0.00,0.000000,,2013-04-19 06:53:00,
2013-04-19 03:02:00,55.0,55.0,-100.00,SSE,155,8.0,15.0,100,0.00,,,0.00,0.000000,,2013-04-19 07:02:00,
2013-04-19 04:10:00,57.0,57.0,-100.00,South,174,12.0,18.0,100,-99.99,,,0.00,0.000000,,2013-04-19 08:10:00,
2013-04-19 04:42:00,57.0,57.0,-100.00,South,174,12.0,18.0,100,-99.99,,,0.00,0.000000,,2013-04-19 08:42:00,
2013-04-19 04:52:00,57.0,57.0,-100.00,South,174,12.0,18.0,100,-99.99,,,0.00,0.000000,,2013-04-19 08:52:00,
2013-04-19 05:01:00,57.0,57.0,-100.00,South,174,12.0,18.0,100,-99.99,,,0.00,0.000000,,2013-04-19 09:01:00,
2013-04-19 05:10:00,57.0,57.0,-100.00,South,173,9.0,18.0,100,0.00,,,0.00,0.000000,,2013-04-19 09:10:00,
2013-04-19 05:33:00,57.0,57.0,-100.00,South,173,9.0,18.0,100,0.00,,,0.00,0.000000,,2013-04-19 09:33:00,
2013-04-19 05:43:00,57.0,57.0,-100.00,South,173,9.0,18.0,100,0.00,,,0.00,0.000000,,2013-04-19 09:43:00,
2013-04-19 05:52:00,57.0,57.0,-100.00,South,173,9.0,18.0,100,0.00,,,0.00,0.000000,,2013-04-19 09:52:00,
2013-04-19 06:02:00,57.0,57.0,-100.00,South,173,9.0,18.0,100,0.00,,,0.00,0.000000,,2013-04-19 10:02:00,
2013-04-19 06:10:00,57.0,57.0,-100.00,SSE,165,8.0,15.0,100,0.00,,,0.00,1.000000,,2013-04-19 10:10:00,
2013-04-19 06:33:00,57.0,57.0,-100.00,SSE,165,8.0,15.0,100,0.00,,,0.00,1.000000,,2013-04-19 10:33:00,
2013-04-19 06:42:00,57.0,57.0,-100.00,SSE,165,8.0,15.0,100,0.00,,,0.00,1.000000,,2013-04-19 10:42:00,
2013-04-19 06:52:00,57.0,57.0,-100.00,SSE,165,8.0,15.0,100,0.00,,,0.00,1.000000,,2013-04-19 10:52:00,
2013-04-19 07:03:00,57.0,57.0,-100.00,SSE,165,8.0,15.0,100,0.00,,,0.00,1.000000,,2013-04-19 11:03:00,
2013-04-19 07:10:00,58.0,58.0,-100.00,South,178,9.0,18.0,100,0.00,,,0.00,9.000000,,2013-04-19 11:10:00,
2013-04-19 07:32:00,58.0,58.0,-100.00,South,178,9.0,18.0,100,0.00,,,0.00,9.000000,,2013-04-19 11:32:00,
2013-04-19 07:43:00,58.0,58.0,-100.00,South,178,9.0,18.0,100,0.00,,,0.00,9.000000,,2013-04-19 11:43:00,
2013-04-19 07:52:00,58.0,58.0,-100.00,South,178,9.0,18.0,100,0.00,,,0.00,9.000000,,2013-04-19 11:52:00,
2013-04-19 08:03:00,58.0,58.0,-100.00,South,178,9.0,18.0,100,0.00,,,0.00,9.000000,,2013-04-19 12:03:00,
2013-04-19 08:10:00,59.0,59.0,-100.00,SSE,166,10.0,18.0,100,0.00,,,0.00,61.000000,,2013-04-19 12:10:00,
2013-04-19 08:42:00,59.0,59.0,-100.00,SSE,166,10.0,18.0,100,0.00,,,0.00,61.000000,,2013-04-19 12:42:00,
2013-04-19 08:53:00,59.0,59.0,-100.00,SSE,166,10.0,18.0,100,0.00,,,0.00,61.000000,,2013-04-19 12:53:00,
2013-04-19 09:02:00,59.0,59.0,-100.00,SSE,166,10.0,18.0,100,0.00,,,0.00,61.000000,,2013-04-19 13:02:00,
2013-04-19 09:10:00,60.0,60.0,-100.00,SSE,166,11.0,18.0,99,0.00,,,0.00,75.000000,,2013-04-19 13:10:00,
2013-04-19 09:42:00,60.0,60.0,-100.00,SSE,166,11.0,18.0,99,0.00,,,0.00,75.000000,,2013-04-19 13:42:00,
2013-04-19 09:52:00,60.0,60.0,-100.00,SSE,166,11.0,18.0,99,0.00,,,0.00,75.000000,,2013-04-19 13:52:00,
2013-04-19 10:02:00,60.0,60.0,-100.00,SSE,166,11.0,18.0,99,0.00,,,0.00,75.000000,,2013-04-19 14:02:00,
2013-04-19 10:10:00,60.0,59.0,-100.00,SSE,166,9.0,16.0,98,0.01,,,0.01,117.000000,,2013-04-19 14:10:00,
2013-04-19 10:32:00,60.0,59.0,-100.00,SSE,166,9.0,16.0,98,0.01,,,0.01,117.000000,,2013-04-19 14:32:00,
2013-04-19 10:43:00,60.0,59.0,-100.00,SSE,166,9.0,16.0,98,0.01,,,0.01,117.000000,,2013-04-19 14:43:00,
2013-04-19 10:52:00,60.0,59.0,-100.00,SSE,166,9.0,16.0,98,0.01,,,0.01,117.000000,,2013-04-19 14:52:00,
2013-04-19 11:02:00,60.0,59.0,-100.00,SSE,166,9.0,16.0,98,0.01,,,0.01,117.000000,,2013-04-19 15:02:00,
2013-04-19 11:10:00,61.0,61.0,-100.00,South,176,13.0,18.0,100,0.00,,,0.01,85.000000,,2013-04-19 15:10:00,
2013-04-19 11:43:00,61.0,61.0,-100.00,South,176,13.0,18.0,100,0.00,,,0.01,85.000000,,2013-04-19 15:43:00,
2013-04-19 11:52:00,61.0,61.0,-100.00,South,176,13.0,18.0,100,0.00,,,0.01,85.000000,,2013-04-19 15:52:00,
2013-04-19 12:03:00,61.0,61.0,-100.00,South,176,13.0,18.0,100,0.00,,,0.01,85.000000,,2013-04-19 16:03:00,
2013-04-19 12:10:00,62.0,61.0,-100.00,SSE,163,9.0,20.0,96,0.00,,,0.01,128.000000,,2013-04-19 16:10:00,
2013-04-19 12:43:00,62.0,61.0,-100.00,SSE,163,9.0,20.0,96,0.00,,,0.01,128.000000,,2013-04-19 16:43:00,
2013-04-19 12:53:00,62.0,61.0,-100.00,SSE,163,9.0,20.0,96,0.00,,,0.01,128.000000,,2013-04-19 16:53:00,
2013-04-19 13:02:00,62.0,61.0,-100.00,SSE,163,9.0,20.0,96,0.00,,,0.01,128.000000,,2013-04-19 17:02:00,
2013-04-19 13:10:00,67.0,64.0,-100.00,South,191,13.0,22.0,90,0.01,,,0.02,243.000000,,2013-04-19 17:10:00,
2013-04-19 13:43:00,67.0,64.0,-100.00,South,191,13.0,22.0,90,0.01,,,0.02,243.000000,,2013-04-19 17:43:00,
2013-04-19 13:52:00,67.0,64.0,-100.00,South,191,13.0,22.0,90,0.01,,,0.02,243.000000,,2013-04-19 17:52:00,
2013-04-19 14:02:00,67.0,64.0,-100.00,South,191,13.0,22.0,90,0.01,,,0.02,243.000000,,2013-04-19 18:02:00,
2013-04-19 14:10:00,69.0,60.0,-100.00,South,189,14.0,29.0,73,0.00,,,0.02,438.000000,,2013-04-19 18:10:00,
2013-04-19 14:43:00,69.0,60.0,-100.00,South,189,14.0,29.0,73,0.00,,,0.02,438.000000,,2013-04-19 18:43:00,
2013-04-19 14:52:00,69.0,60.0,-100.00,South,189,14.0,29.0,73,0.00,,,0.02,438.000000,,2013-04-19 18:52:00,
2013-04-19 15:02:00,69.0,60.0,-100.00,South,189,14.0,29.0,73,0.00,,,0.02,438.000000,,2013-04-19 19:02:00,
2013-04-19 15:10:00,73.0,63.0,-100.00,South,177,13.0,25.0,71,0.00,,,0.02,598.000000,,2013-04-19 19:10:00,
2013-04-19 15:32:00,73.0,63.0,-100.00,South,177,13.0,25.0,71,0.00,,,0.02,598.000000,,2013-04-19 19:32:00,
2013-04-19 15:42:00,73.0,63.0,-100.00,South,177,13.0,25.0,71,0.00,,,0.02,598.000000,,2013-04-19 19:42:00,
2013-04-19 15:52:00,73.0,63.0,-100.00,South,177,13.0,25.0,71,0.00,,,0.02,598.000000,,2013-04-19 19:52:00,
2013-04-19 16:02:00,73.0,63.0,-100.00,South,177,13.0,25.0,71,0.00,,,0.02,598.000000,,2013-04-19 20:02:00,
2013-04-19 16:10:00,72.0,62.0,-100.00,South,173,13.0,22.0,70,0.00,,,0.02,232.000000,,2013-04-19 20:10:00,
2013-04-19 16:42:00,72.0,62.0,-100.00,South,173,13.0,22.0,70,0.00,,,0.02,232.000000,,2013-04-19 20:42:00,
2013-04-19 16:52:00,72.0,62.0,-100.00,South,173,13.0,22.0,70,0.00,,,0.02,232.000000,,2013-04-19 20:52:00,
2013-04-19 17:01:00,72.0,62.0,-100.00,South,173,13.0,22.0,70,0.00,,,0.02,232.000000,,2013-04-19 21:01:00,
2013-04-19 18:10:00,72.0,61.0,-100.00,South,171,12.0,24.0,68,-99.99,,,0.02,33.000000,,2013-04-19 22:10:00,
2013-04-19 18:33:00,72.0,61.0,-100.00,South,171,12.0,24.0,68,-99.99,,,0.02,33.000000,,2013-04-19 22:33:00,
2013-04-19 18:42:00,72.0,61.0,-100.00,South,171,12.0,24.0,68,-99.99,,,0.02,33.000000,,2013-04-19 22:42:00,
2013-04-19 18:52:00,72.0,61.0,-100.00,South,171,12.0,24.0,68,-99.99,,,0.02,33.000000,,2013-04-19 22:52:00,
2013-04-19 19:03:00,72.0,61.0,-100.00,South,171,12.0,24.0,68,-99.99,,,0.02,33.000000,,2013-04-19 23:03:00,
2013-04-19 19:10:00,69.0,60.0,-100.00,SSE,157,11.0,27.0,72,0.00,,,0.02,22.000000,,2013-04-19 23:10:00,
2013-04-19 19:42:00,69.0,60.0,-100.00,SSE,157,11.0,27.0,72,0.00,,,0.02,22.000000,,2013-04-19 23:42:00,
2013-04-19 19:53:00,69.0,60.0,-100.00,SSE,157,11.0,27.0,72,0.00,,,0.02,22.000000,,2013-04-19 23:53:00,
2013-04-19 20:02:00,69.0,60.0,-100.00,SSE,157,11.0,27.0,72,0.00,,,0.02,22.000000,,2013-04-20 00:02:00,
2013-04-19 21:10:00,67.0,60.0,-100.00,SW,215,14.0,28.0,79,-99.99,,,0.08,0.000000,,2013-04-20 01:10:00,
2013-04-19 21:32:00,67.0,60.0,-100.00,SW,215,14.0,28.0,79,-99.99,,,0.08,0.000000,,2013-04-20 01:32:00,
2013-04-19 21:42:00,67.0,60.0,-100.00,SW,215,14.0,28.0,79,-99.99,,,0.08,0.000000,,2013-04-20 01:42:00,
2013-04-19 21:52:00,67.0,60.0,-100.00,SW,215,14.0,28.0,79,-99.99,,,0.08,0.000000,,2013-04-20 01:52:00,
2013-04-19 22:02:00,67.0,60.0,-100.00,SW,215,14.0,28.0,79,-99.99,,,0.08,0.000000,,2013-04-20 02:02:00,
2013-04-19 22:10:00,59.0,58.0,-100.00,SW,219,7.0,21.0,97,0.56,,,0.64,0.000000,,2013-04-20 02:10:00,
2013-04-19 22:32:00,59.0,58.0,-100.00,SW,219,7.0,21.0,97,0.56,,,0.64,0.000000,,2013-04-20 02:32:00,
2013-04-19 22:42:00,59.0,58.0,-100.00,SW,219,7.0,21.0,97,0.56,,,0.64,0.000000,,2013-04-20 02:42:00,
2013-04-19 22:52:00,59.0,58.0,-100.00,SW,219,7.0,21.0,97,0.56,,,0.64,0.000000,,2013-04-20 02:52:00,
2013-04-19 23:01:00,59.0,58.0,-100.00,SW,219,7.0,21.0,97,0.56,,,0.64,0.000000,,2013-04-20 03:01:00,
2013-04-19 23:10:00,55.0,54.0,-100.00,West,277,9.0,29.0,95,0.17,,,0.81,0.000000,,2013-04-20 03:10:00,
2013-04-19 23:43:00,55.0,54.0,-100.00,West,277,9.0,29.0,95,0.17,,,0.81,0.000000,,2013-04-20 03:43:00,
2013-04-19 23:53:00,55.0,54.0,-100.00,West,277,9.0,29.0,95,0.17,,,0.81,0.000000,,2013-04-20 03:53:00,